TimeCDT,TemperatureF,Dew PointF,Humidity,Sea Level PressureIn,VisibilityMPH,Wind Direction,Wind SpeedMPH,Gust SpeedMPH,PrecipitationIn,Events,Conditions,WindDirDegrees,DateUTC
12:53 AM,53.1,51.1,93,30.19,10.0,Calm,Calm,-,N/A,,Partly Cloudy,0,2013-08-14 05:53:00
1:53 AM,54.0,52.0,93,30.19,10.0,Calm,Calm,-,N/A,,Mostly Cloudy,0,2013-08-14 06:53:00
2:53 AM,54.0,52.0,93,30.19,10.0,Calm,Calm,-,N/A,,Mostly Cloudy,0,2013-08-14 07:53:00
3:53 AM,53.1,51.1,93,30.20,10.0,Calm,Calm,-,N/A,,Scattered Clouds,0,2013-08-14 08:53:00
4:53 AM,51.1,50.0,96,30.20,9.0,Calm,Calm,-,N/A,,Clear,0,2013-08-14 09:53:00
5:53 AM,50.0,48.9,96,30.20,9.0,Calm,Calm,-,N/A,,Clear,0,2013-08-14 10:53:00
6:53 AM,48.9,48.0,97,30.21,8.0,Calm,Calm,-,N/A,,Clear,0,2013-08-14 11:53:00
7:53 AM,57.0,52.0,83,30.22,10.0,Calm,Calm,-,N/A,,Clear,0,2013-08-14 12:53:00
8:53 AM,62.1,53.1,72,30.23,10.0,Calm,Calm,-,N/A,,Clear,0,2013-08-14 13:53:00
9:53 AM,66.0,53.1,63,30.22,10.0,South,3.5,-,N/A,,Clear,170,2013-08-14 14:53:00
10:53 AM,70.0,48.0,46,30.23,10.0,Variable,4.6,-,N/A,,Clear,0,2013-08-14 15:53:00
11:53 AM,72.0,44.1,37,30.22,10.0,South,4.6,-,N/A,,Clear,180,2013-08-14 16:53:00
12:53 PM,73.0,46.9,39,30.20,10.0,South,4.6,-,N/A,,Clear,190,2013-08-14 17:53:00
1:53 PM,73.9,46.0,37,30.19,10.0,South,6.9,-,N/A,,Clear,180,2013-08-14 18:53:00
2:53 PM,75.0,46.0,36,30.17,10.0,ESE,8.1,-,N/A,,Clear,120,2013-08-14 19:53:00
3:53 PM,73.9,44.1,34,30.16,10.0,South,4.6,-,N/A,,Clear,170,2013-08-14 20:53:00
4:53 PM,73.0,46.0,38,30.15,10.0,Variable,3.5,-,N/A,,Clear,0,2013-08-14 21:53:00
5:53 PM,72.0,46.9,41,30.14,10.0,South,3.5,-,N/A,,Clear,170,2013-08-14 22:53:00
6:53 PM,71.1,50.0,47,30.13,10.0,Calm,Calm,-,N/A,,Clear,0,2013-08-14 23:53:00
7:53 PM,66.9,55.0,66,30.12,10.0,SE,3.5,-,N/A,,Clear,140,2013-08-15 00:53:00
8:53 PM,64.0,55.9,75,30.13,10.0,Calm,Calm,-,N/A,,Clear,0,2013-08-15 01:53:00
9:53 PM,63.0,55.0,75,30.14,10.0,Calm,Calm,-,N/A,,Clear,0,2013-08-15 02:53:00
10:53 PM,62.1,55.9,80,30.14,10.0,Calm,Calm,-,N/A,,Scattered Clouds,0,2013-08-15 03:53:00
11:53 PM,62.1,55.0,78,30.13,10.0,SE,3.5,-,N/A,,Overcast,140,2013-08-15 04:53:00